Regional Weather Roundup
Issued by NWS

Home | Current Version | Previous Version | Graphics & Text | Print | Product List | Glossary On
Versions: 1 2 3 4 5 6 7 8 9 10 11 12 13 14 15 16 17 18 19 20 21 22 23 24 25 26 27 28 29 30 31 32 33 34 35 36 37 38 39 40 41 42 43 44 45 46 47 48 49 50
000
ASUS45 KBOU 241007
RWRCO

WEATHER ROUNDUP FOR COLORADO
NATIONAL WEATHER SERVICE DENVER/BOULDER CO
400 AM MDT WED AUG 24 2016

NOTE: "FAIR" INDICATES FEW OR NO CLOUDS BELOW 12000 FEET WITH NO
SIGNIFICANT WEATHER AND/OR OBSTRUCTIONS TO VISIBILITY.

COZ001>005-013-030-031-241100-
...NORTHWEST COLORADO...

CITY           SKY/WX    TMP DP  RH WIND       PRES   REMARKS
CRAIG          FAIR      50  44  80 CALM      30.24F
HAYDEN         FAIR      52  43  71 E6        30.25F
MEEKER         FAIR      49  45  86 CALM      30.25F
MOUNT WERNER   NOT AVBL
STEAMBOAT SPGS FAIR      52  44  75 CALM      30.27S
WALDEN         CLOUDY    50  39  66 SE5       30.35F
$$

COZ006>008-011-241100-
...WEST CENTRAL VALLEYS...

CITY           SKY/WX    TMP DP  RH WIND       PRES   REMARKS
GRAND JUNCTION FAIR      63  49  60 S5        30.19S
MONTROSE       MOCLDY    55  51  86 SE7       30.26F
EAGLE          MOCLDY    52  46  82 E8        30.30S
RIFLE          FAIR      55  53  93 SE5       30.23F
DELTA          NOT AVBL
NUCLA          MOCLDY    54  54 100 SE3       30.29F
$$

COZ017>023-064>068-241100-
...SOUTHWEST COLORADO...

CITY           SKY/WX    TMP DP  RH WIND       PRES   REMARKS
DURANGO        CLOUDY    52  47  83 NW3       30.27F
CORTEZ         FAIR      54  52  93 CALM      30.26S
PAGOSA SPRINGS FAIR      47  47  97 CALM      30.33F
TELLURIDE      CLOUDY    46  45  95 CALM      30.41F
WOLF CREEK PAS MOCLDY    34  34 100 SW5       30.55F WCI  30
$$

COZ009-010-012-014-032>034-037-058>063-241100-
...CENTRAL COLORADO...

CITY           SKY/WX    TMP DP  RH WIND       PRES   REMARKS
ASPEN          FAIR      48  47  96 CALM      30.32F
BUENA VISTA    MIX PCPN  48  43  85 NW5       30.35F
COPPER MTN     CLOUDY    41  32  70 SE13G21   30.52F
BERTHOUD PASS  CLOUDY    34  21  60 E18G26    30.56F WCI  23
COTTONWOOD PAS LGT RAIN  46  41  81 SW6       30.43F
GUNNISON       MOCLDY    50  45  81 CALM      30.36S
KREMMLING      RAIN      50  43  76 CALM      30.34S
LEADVILLE      CLOUDY    40  38  93 CALM      30.42F
MONARCH PASS   FOG       36  36 100 E5        30.62S VSB<1/4
SALIDA         CLOUDY    51  47  85 CALM      30.42S
SUNLIGHT       FAIR      43  39  87 SW6       30.51S
WILKERSON PASS DRIZZLE   37  36  93 S6        30.52F
$$

COZ069>075-241100-
...SAN LUIS VALLEY/SANGRE DE CRISTO MOUNTAINS...

CITY           SKY/WX    TMP DP  RH WIND       PRES   REMARKS
ALAMOSA        CLOUDY    46  45  96 W3        30.32R
LA VETA PASS   CLOUDY    45  36  70 CALM      30.43F
SAGUACHE       CLOUDY    50  46  87 E8        30.34R
$$

COZ035-036-038>040-241100-
...NORTHERN COLORADO FRONT RANGE...

CITY           SKY/WX    TMP DP  RH WIND       PRES   REMARKS
DENVER INTL AP CLOUDY    64  43  46 S20       30.16S
DMNS CITY PARK   N/A     64  44  48 S9        30.15S
AURORA         MOCLDY    62  44  51 S6        30.19R
FRONT RANGE AP NOT AVBL
ERIE MUNI ARPT MOCLDY    67  39  34 S3        30.13S
BOULDER MUN AP MOCLDY    70  37  30 W7        30.13S
CENTENNIAL     CLOUDY    62  42  47 SE8       30.20R
BROOMFIELD     MOCLDY    64  41  42 CALM      30.17S
FORT COLLINS   MOCLDY    68  41  37 SE8       30.12S
LONGMONT       CLOUDY    66  46  48 W5        30.13F
$$

COZ041-046-047-076>085-087-088-241100-
...PIKES PEAK/PALMER DIVIDE AND SOUTHERN FOOTHILLS...

CITY           SKY/WX    TMP DP  RH WIND       PRES   REMARKS
COLO. SPRINGS  CLOUDY    61  43  51 NE8       30.23S
A. F. ACADEMY  MOCLDY    60  42  52 W5        30.24R
SCHRIEVER AFB  NOT AVBL
ELLICOTT       NOT AVBL
FALCON         CLOUDY    57  42  55 N3        30.26F
FORT CARSON    NOT AVBL
LIMON          CLOUDY    63  42  46 NW3       30.15F
MONUMENT HILL  CLOUDY    55  39  54 S5        30.27F
TRINIDAD       FAIR      54  50  86 W9        30.20F
$$

COZ042>045-048>051-090-091-241100-
...NORTHEAST COLORADO...

CITY           SKY/WX    TMP DP  RH WIND       PRES   REMARKS
GREELEY ARPT   FAIR      66  45  45 CALM      30.12S
AKRON          FAIR      63  40  42 E6        30.15F
BURLINGTON     FAIR      66  43  43 NE15      30.06F
WRAY           FAIR      61  46  59 W5        30.13R
STERLING       CLOUDY    63  45  51 NE3       30.12F
HOLYOKE        FAIR      61  46  59 W5        30.12R
FORT MORGAN    FAIR      64  39  39 E9        30.14S
$$

COZ086-089-092>099-241100-
...SOUTHEAST COLORADO...

CITY           SKY/WX    TMP DP  RH WIND       PRES   REMARKS
PUEBLO         FAIR      60  52  74 W7        30.14F
LA JUNTA       FAIR      62  54  74 W13       30.09S
LAMAR          FAIR      61  53  75 SW7       30.01F
SPRINGFIELD      N/A     63  49  60 NW16      30.07S
$$



USA.gov is the U.S. government's official web portal to all federal, state and local government web resources and services.